Flag for Germany Weather past 2 weeks in Hockenheim, Baden-Württemberg, Germany

32 °F

Ice fog.

Feels Like: 29 °F
Forecast: 30 / 44 °F
Wind: 3 mph from North

Location: Baden Wurttemberg - Neuostheim

Current Time: Nov 27, 2015 at 11:38:22 AM

Latest Report: Nov 27, 2015 at 10:50 AM

Visibility: 0 mi

Pressure: 30.15 "Hg

Humidity: 100%

Dew point: 32 °F

Location of HockenheimLocation

Historic Weather in Hockenheim — Graph


Hockenheim temperature yesterday

Maximum temperature yesterday: 45 °F (at 12:20 PM)
Minimum temperature yesterday: 34 °F (at 8:50 PM)
Average temperature yesterday: 41 °F

Past Weeks' High & Low Weather Summary

High61 °F (Nov 18, 5:50 AM)100% (Nov 12, 7:50 PM)30.42 "Hg (Nov 12, 7:50 PM)
Low27 °F (Nov 27, 6:20 AM)51% (Nov 16, 10:20 AM)29.42 "Hg (Nov 21, 11:50 AM)
Average47 °F80%30.02 "Hg
* Reported Nov 12 10:20 AM — Nov 27 10:20 AM, Hockenheim, Weather by CustomWeather, © 2015

Note: Actual official high and low records may vary slightly from our data, if they occured in-between our weather recording intervals... More about our weather records


Hockenheim weather history for previous 24 hours

Time TempWeatherWind HumidityBarometerVisibility
10:20 AM
Fri, Nov 27
32 °FIce fog.1 mph100%30.15 "Hg0 mi
9:50 AM32 °FIce fog.1 mph100%30.15 "Hg0 mi
9:20 AM32 °FIce fog.1 mph100%30.15 "Hg0 mi
8:50 AM30 °FIce fog.1 mph100%30.15 "Hg0 mi
7:50 AM28 °FIce fog.2 mph100%30.15 "Hg1 mi
7:20 AM28 °FChilly.2 mph100%30.15 "Hg1 mi
6:50 AM27 °FIce fog.No wind100%30.15 "Hg0 mi
6:20 AM27 °FIce fog.No wind100%30.15 "Hg1 mi
5:50 AM28 °FIce fog.1 mph100%30.15 "Hg1 mi
5:20 AM28 °FIce fog.No wind100%30.15 "Hg0 mi
8:50 PM
Thu, Nov 26
34 °FClear.3 mph93%30.18 "Hg10 mi
8:20 PM36 °FClear.2 mph100%30.15 "Hg10 mi
7:50 PM36 °FClear.2 mph100%30.15 "Hg10 mi
7:20 PM36 °FClear.2 mph100%30.15 "Hg10 mi
6:50 PM36 °FPassing clouds.2 mph100%30.15 "HgN/A
6:20 PM39 °FPassing clouds.2 mph93%30.12 "HgN/A
5:50 PM41 °FPartly cloudy.3 mph87%30.12 "HgN/A
5:20 PM41 °FMostly cloudy.3 mph87%30.09 "HgN/A
4:50 PM43 °FScattered showers. Mostly cloudy.5 mph81%30.09 "HgN/A
4:20 PM43 °FScattered showers. Partly sunny.5 mph81%30.07 "HgN/A
3:50 PM41 °FLight rain. Broken clouds.9 mph93%30.07 "HgN/A
3:20 PM43 °FSprinkles. Partly sunny.7 mph81%30.07 "HgN/A
2:50 PM45 °FScattered showers. Partly sunny.6 mph76%30.04 "HgN/A
2:20 PM45 °FMore clouds than sun.6 mph76%30.04 "HgN/A
1:50 PM45 °FPartly sunny.7 mph76%30.04 "HgN/A
1:20 PM45 °FPartly sunny.6 mph76%30.04 "HgN/A
12:50 PM45 °FCloudy.9 mph76%30.01 "HgN/A
12:20 PM45 °FPartly sunny.6 mph76%30.01 "HgN/A
11:50 AM43 °FMostly cloudy.7 mph87%30.01 "HgN/A
11:20 AM43 °FOvercast.8 mph81%30.01 "HgN/A
Weather by CustomWeather, © 2015

See weather overviewHow to use our weather pages